Date String (YYYY-MM-DD hh:mm:ss) UTC,Instrument flags,Ambient pressure (hPa),Sample flow (lpm),Bypass flow (lpm),Sample temperature (°C),Ambient temperature (°C),ASC tube jacket temperature (°C),LED temperature (°C),Box temperature (°C),Sample RH (%),Span deviation,Mass concentration (μg/m³),Mass concentration (μg/m³),Mass concentration (μg/m³)
DateTimeUTC,F1_M11,P_M11,Q1_M11,Q2_M11,T1_M11,T2_M11,T3_M11,T4_M11,T5_M11,U1_M11,ZSPAN_M11,X0_M11,X2_M11,X1_M11
2022-09-11 16:00:00,,0834.3,5.00,0.00,27.9,26.7,00.0,36.6,29.9,27.6,0001.1,0009.99,0006.95,0006.68
2022-09-11 16:01:00,,0834.3,5.00,0.00,28.0,26.7,00.0,36.6,29.9,28.3,0000.9,0009.96,0006.96,0006.69
2022-09-11 16:02:00,,0834.4,5.00,0.00,28.0,26.8,00.0,36.6,29.9,28.4,0000.6,0009.94,0006.95,0006.69
2022-09-11 16:03:00,,0834.4,5.00,0.00,28.0,26.8,00.0,36.6,29.9,27.5,0000.2,0009.82,0006.96,0006.70
2022-09-11 16:04:00,,0834.4,4.99,0.00,28.0,26.8,00.0,36.7,29.9,27.5,0000.3,0009.73,0006.96,0006.72
2022-09-11 16:05:00,,0834.4,5.01,0.00,28.0,26.8,00.0,36.7,30.0,27.4,-000.1,0009.77,0006.98,0006.73
2022-09-11 16:06:00,,0834.4,5.01,0.00,28.0,26.8,00.0,36.7,30.0,27.3,-000.2,0009.96,0007.01,0006.74
2022-09-11 16:07:00,,0834.4,4.99,0.00,28.1,26.9,00.0,36.7,30.0,27.3,-000.5,0010.75,0007.02,0006.74
2022-09-11 16:08:00,,0834.4,5.00,0.00,28.1,26.9,00.0,36.7,30.0,27.3,-000.6,0011.12,0007.01,0006.74
2022-09-11 16:09:00,,0834.4,5.00,0.00,28.1,26.9,00.0,36.7,30.0,26.7,-000.5,0010.98,0007.02,0006.74
2022-09-11 16:10:00,,0834.4,4.99,0.00,28.1,26.9,00.0,36.7,30.0,26.7,-000.5,0010.79,0007.00,0006.73
2022-09-11 16:11:00,,0834.4,5.00,0.00,28.1,26.9,00.0,36.8,30.0,26.4,-000.4,0010.77,0006.97,0006.71
2022-09-11 16:12:00,,0834.4,5.00,0.00,28.1,27.0,00.0,36.8,30.1,26.3,0000.0,0011.09,0006.96,0006.71
2022-09-11 16:13:00,,0834.5,5.01,0.00,28.2,27.0,00.0,36.8,30.1,26.6,0000.1,0011.64,0006.96,0006.71
2022-09-11 16:14:00,,0834.4,4.99,0.00,28.2,27.0,00.0,36.8,30.1,26.4,0000.4,0011.94,0006.92,0006.69
2022-09-11 16:15:00,,0834.4,5.00,0.00,28.2,27.0,00.0,36.8,30.1,26.4,0000.6,0011.93,0006.91,0006.67
2022-09-11 16:16:00,,0834.5,5.00,0.00,28.2,27.0,00.0,36.8,30.1,26.5,0000.9,0012.46,0006.89,0006.66
2022-09-11 16:17:00,,0834.4,5.00,0.00,28.2,27.1,00.0,36.8,30.1,27.1,0001.2,0012.55,0006.89,0006.65
2022-09-11 16:18:00,,0834.4,5.01,0.00,28.3,27.1,00.0,36.9,30.2,27.1,0001.6,0011.59,0006.87,0006.63
2022-09-11 16:19:00,,0834.4,5.00,0.00,28.3,27.1,00.0,36.9,30.2,27.0,0001.5,0010.91,0006.85,0006.62
2022-09-11 16:20:00,,0834.5,4.99,0.00,28.3,27.1,00.0,36.9,30.2,27.1,0001.5,0010.87,0006.82,0006.59
2022-09-11 16:21:00,,0834.4,4.99,0.00,28.3,27.1,00.0,36.9,30.2,26.5,0001.7,0010.84,0006.81,0006.58
2022-09-11 16:22:00,,0834.5,5.00,0.00,28.3,27.1,00.0,36.9,30.2,26.7,0002.0,0010.77,0006.80,0006.59
2022-09-11 16:23:00,,0834.5,5.01,0.00,28.3,27.1,00.0,37.0,30.2,27.2,0001.7,0010.78,0006.83,0006.60
2022-09-11 16:24:00,,0834.4,5.00,0.00,28.4,27.1,00.0,37.0,30.3,27.0,0002.0,0010.14,0006.84,0006.61
2022-09-11 16:25:00,,0834.4,5.01,0.00,28.4,27.1,00.0,37.0,30.3,27.3,0002.1,0009.95,0006.89,0006.64
2022-09-11 16:26:00,,0834.4,5.00,0.00,28.4,27.1,00.0,37.0,30.3,27.2,0001.6,0010.51,0006.96,0006.68
2022-09-11 16:27:00,,0834.4,5.00,0.00,28.4,27.1,00.0,37.0,30.3,27.6,0001.2,0010.19,0006.99,0006.71
2022-09-11 16:28:00,,0834.5,5.00,0.00,28.4,27.2,00.0,37.0,30.3,27.4,0001.1,0010.48,0007.00,0006.74
2022-09-11 16:29:00,,0834.5,4.98,0.00,28.4,27.2,00.0,37.0,30.3,28.2,0001.4,0010.51,0007.02,0006.77
2022-09-11 16:30:00,,0834.5,5.00,0.00,28.4,27.2,00.0,37.1,30.3,27.2,0001.5,0010.56,0007.03,0006.79
2022-09-11 16:31:00,,0834.5,5.00,0.00,28.4,27.2,00.0,37.1,30.3,27.1,0001.1,0010.74,0007.05,0006.80
2022-09-11 16:32:00,,0834.5,5.00,0.00,28.4,27.2,00.0,37.1,30.4,27.3,0000.9,0011.59,0007.09,0006.82
2022-09-11 16:33:00,,0834.5,5.01,0.00,28.5,27.2,00.0,37.1,30.4,27.4,0001.0,0011.84,0007.11,0006.84
2022-09-11 16:34:00,,0834.5,4.98,0.00,28.5,27.3,00.0,37.1,30.4,27.1,0001.0,0011.75,0007.08,0006.83
2022-09-11 16:35:00,,0834.5,5.00,0.00,28.5,27.3,00.0,37.1,30.4,26.7,0000.8,0011.76,0007.05,0006.80
2022-09-11 16:36:00,,0834.5,5.00,0.00,28.5,27.3,00.0,37.1,30.4,26.6,0000.9,0011.97,0007.02,0006.77
2022-09-11 16:37:00,,0834.4,5.00,0.00,28.5,27.3,00.0,37.2,30.4,26.7,0001.0,0011.44,0006.97,0006.74
2022-09-11 16:38:00,,0834.5,5.00,0.00,28.5,27.3,00.0,37.2,30.4,26.6,0001.1,0011.43,0006.96,0006.72
2022-09-11 16:39:00,,0834.4,4.99,0.00,28.5,27.3,00.0,37.2,30.4,26.9,0001.0,0010.94,0006.94,0006.69
2022-09-11 16:40:00,,0834.5,5.00,0.00,28.5,27.3,00.0,37.2,30.4,27.0,0000.5,0010.81,0006.93,0006.67
2022-09-11 16:41:00,,0834.5,5.00,0.00,28.6,27.3,00.0,37.2,30.5,27.2,0000.4,0010.78,0006.89,0006.64
2022-09-11 16:42:00,,0834.5,5.00,0.00,28.6,27.3,00.0,37.2,30.5,26.0,0000.9,0010.78,0006.88,0006.63
2022-09-11 16:43:00,,0834.5,5.00,0.00,28.6,27.4,00.0,37.2,30.5,26.3,0001.2,0010.07,0006.86,0006.63
2022-09-11 16:44:00,,0834.5,4.99,0.00,28.6,27.4,00.0,37.3,30.5,26.4,0001.1,0009.61,0006.82,0006.61
2022-09-11 16:45:00,,0834.5,5.00,0.00,28.6,27.4,00.0,37.3,30.5,27.0,0000.9,0009.61,0006.81,0006.58
2022-09-11 16:46:00,,0834.5,5.00,0.00,28.6,27.4,00.0,37.3,30.5,26.8,0000.8,0010.17,0006.82,0006.58
2022-09-11 16:47:00,,0834.4,5.00,0.00,28.6,27.4,00.0,37.3,30.5,26.6,0000.4,0009.92,0006.82,0006.58
2022-09-11 16:48:00,,0834.5,5.01,0.00,28.7,27.4,00.0,37.3,30.6,26.1,0000.0,0009.74,0006.84,0006.58
2022-09-11 16:49:00,,0834.5,4.98,0.00,28.7,27.4,00.0,37.3,30.6,25.9,-000.2,0009.72,0006.84,0006.58
2022-09-11 16:50:00,,0834.5,5.00,0.00,28.7,27.4,00.0,37.3,30.6,26.0,0000.0,0009.69,0006.83,0006.58
2022-09-11 16:51:00,,0834.5,5.01,0.00,28.7,27.4,00.0,37.4,30.6,25.8,0000.4,0009.81,0006.86,0006.59
2022-09-11 16:52:00,,0834.4,5.01,0.00,28.7,27.5,00.0,37.4,30.6,25.8,0000.4,0009.96,0006.91,0006.61
2022-09-11 16:53:00,,0834.4,5.00,0.00,28.7,27.5,00.0,37.4,30.6,25.6,-000.1,0010.03,0006.94,0006.63
2022-09-11 16:54:00,,0834.5,5.00,0.00,28.7,27.5,00.0,37.4,30.6,26.3,-000.2,0010.04,0006.95,0006.62
2022-09-11 16:55:00,,0834.4,4.98,0.00,28.7,27.5,00.0,37.4,30.6,26.5,-000.2,0010.04,0006.97,0006.64
2022-09-11 16:56:00,,0834.4,5.01,0.00,28.8,27.5,00.0,37.4,30.7,26.4,-000.4,0010.48,0006.99,0006.66
2022-09-11 16:57:00,,0834.4,5.01,0.00,28.8,27.6,00.0,37.4,30.7,26.2,-000.2,0011.29,0006.98,0006.66
2022-09-11 16:58:00,,0834.4,5.01,0.00,28.8,27.6,00.0,37.4,30.7,25.6,0000.0,0011.24,0006.97,0006.66
2022-09-11 16:59:00,,0834.4,4.99,0.00,28.8,27.6,00.0,37.5,30.7,26.6,0000.6,0011.15,0006.95,0006.66
